Time,TemperatureF,DewpointF,PressureIn,WindDirection,WindDirectionDegrees,WindSpeedMPH,WindSpeedGustMPH,Humidity,HourlyPrecipIn,Conditions,Clouds,dailyrainin,SoftwareType,DateUTC
2013-01-27 00:03:00,54.1,38.8,-100.00,SW,222,8.0,13.0,56,0.00,,,0.04,meteohub,2013-01-27 08:03:00,
2013-01-27 00:08:00,54.0,39.0,-100.00,SSW,202,12.0,20.0,57,0.00,,,0.00,meteohub,2013-01-27 08:08:00,
2013-01-27 00:13:00,53.8,39.4,-100.00,SW,220,11.0,20.0,58,0.00,,,0.00,meteohub,2013-01-27 08:13:00,
2013-01-27 00:18:00,53.2,39.7,-100.00,SW,219,11.0,21.0,60,0.00,,,0.00,meteohub,2013-01-27 08:18:00,
2013-01-27 00:23:00,53.4,40.3,-100.00,SSW,211,8.0,27.0,61,0.00,,,0.00,meteohub,2013-01-27 08:23:00,
2013-01-27 00:28:00,53.4,40.3,-100.00,SSW,207,8.0,27.0,61,0.00,,,0.00,meteohub,2013-01-27 08:28:00,
2013-01-27 00:33:00,53.2,40.1,-100.00,SW,215,11.0,27.0,61,0.00,,,0.00,meteohub,2013-01-27 08:33:00,
2013-01-27 00:38:00,53.1,40.5,-100.00,SW,214,13.0,25.0,62,0.00,,,0.00,meteohub,2013-01-27 08:38:00,
2013-01-27 00:43:00,53.1,39.9,-100.00,SSW,213,7.0,25.0,61,0.00,,,0.00,meteohub,2013-01-27 08:43:00,
2013-01-27 00:48:00,52.9,39.7,-100.00,SSW,197,14.0,22.0,61,0.00,,,0.00,meteohub,2013-01-27 08:48:00,
2013-01-27 00:53:00,53.1,39.9,-100.00,SSW,208,12.0,22.0,61,0.00,,,0.00,meteohub,2013-01-27 08:53:00,
2013-01-27 00:58:00,53.2,39.2,-100.00,SW,216,14.0,21.0,59,0.00,,,0.00,meteohub,2013-01-27 08:58:00,
2013-01-27 01:03:00,53.1,38.7,-100.00,SSW,194,15.0,21.0,58,0.00,,,0.00,meteohub,2013-01-27 09:03:00,
2013-01-27 01:08:00,53.2,38.5,-100.00,SSW,211,11.0,19.0,57,0.00,,,0.00,meteohub,2013-01-27 09:08:00,
2013-01-27 01:13:00,53.2,38.5,-100.00,SSW,209,15.0,20.0,57,0.00,,,0.00,meteohub,2013-01-27 09:13:00,
2013-01-27 01:18:00,53.8,38.8,-100.00,WSW,250,9.0,22.0,57,0.00,,,0.00,meteohub,2013-01-27 09:18:00,
2013-01-27 01:23:00,53.8,37.9,-100.00,SW,216,12.0,27.0,55,0.00,,,0.00,meteohub,2013-01-27 09:23:00,
2013-01-27 01:28:00,53.6,37.8,-100.00,SW,223,24.0,28.0,55,0.00,,,0.00,meteohub,2013-01-27 09:28:00,
2013-01-27 01:33:00,53.4,37.6,-100.00,SW,215,15.0,28.0,55,0.00,,,0.00,meteohub,2013-01-27 09:33:00,
2013-01-27 01:38:00,53.4,38.1,-100.00,SSW,211,12.0,27.0,56,0.00,,,0.00,meteohub,2013-01-27 09:38:00,
2013-01-27 01:43:00,53.4,38.5,-100.00,SW,222,20.0,27.0,57,0.00,,,0.00,meteohub,2013-01-27 09:43:00,
2013-01-27 01:48:00,53.6,38.3,-100.00,SSW,207,8.0,27.0,56,0.00,,,0.00,meteohub,2013-01-27 09:48:00,
2013-01-27 01:53:00,53.2,37.4,-100.00,WSW,238,14.0,24.0,55,0.00,,,0.00,meteohub,2013-01-27 09:53:00,
2013-01-27 01:58:00,53.2,37.0,-100.00,SW,227,16.0,23.0,54,0.00,,,0.00,meteohub,2013-01-27 09:58:00,
2013-01-27 02:03:00,53.4,38.5,-100.00,WSW,242,17.0,27.0,57,0.00,,,0.00,meteohub,2013-01-27 10:03:00,
2013-01-27 02:08:00,53.4,38.1,-100.00,SW,232,17.0,27.0,56,0.00,,,0.00,meteohub,2013-01-27 10:08:00,
2013-01-27 02:13:00,53.2,37.0,-100.00,SW,214,18.0,23.0,54,0.00,,,0.00,meteohub,2013-01-27 10:13:00,
2013-01-27 02:18:00,53.2,37.0,-100.00,SW,234,13.0,21.0,54,0.00,,,0.00,meteohub,2013-01-27 10:18:00,
2013-01-27 02:23:00,53.1,36.9,-100.00,SSW,201,14.0,21.0,54,0.00,,,0.00,meteohub,2013-01-27 10:23:00,
2013-01-27 02:28:00,53.1,37.4,-100.00,SW,224,8.0,21.0,55,0.00,,,0.00,meteohub,2013-01-27 10:28:00,
2013-01-27 02:33:00,53.2,37.0,-100.00,SW,230,13.0,20.0,54,0.00,,,0.00,meteohub,2013-01-27 10:33:00,
2013-01-27 02:38:00,53.2,35.6,-100.00,SSW,212,8.0,20.0,51,0.00,,,0.00,meteohub,2013-01-27 10:38:00,
2013-01-27 02:43:00,53.6,36.0,-100.00,SSW,213,12.0,21.0,51,0.00,,,0.00,meteohub,2013-01-27 10:43:00,
2013-01-27 02:48:00,53.8,36.1,-100.00,SW,215,10.0,21.0,51,0.00,,,0.00,meteohub,2013-01-27 10:48:00,
2013-01-27 02:53:00,54.0,36.3,-100.00,SSW,210,8.0,17.0,51,0.00,,,0.00,meteohub,2013-01-27 10:53:00,
2013-01-27 02:58:00,54.5,35.8,-100.00,SSW,205,8.0,17.0,49,0.00,,,0.00,meteohub,2013-01-27 10:58:00,
2013-01-27 03:03:00,54.3,35.6,-100.00,SW,220,14.0,17.0,49,0.00,,,0.00,meteohub,2013-01-27 11:03:00,
2013-01-27 03:08:00,54.1,36.0,-100.00,SW,215,6.0,18.0,50,0.00,,,0.00,meteohub,2013-01-27 11:08:00,
2013-01-27 03:13:00,54.0,36.7,-100.00,SW,226,13.0,20.0,52,0.00,,,0.00,meteohub,2013-01-27 11:13:00,
2013-01-27 03:18:00,54.1,36.9,-100.00,WSW,237,11.0,20.0,52,0.00,,,0.00,meteohub,2013-01-27 11:18:00,
2013-01-27 03:23:00,54.1,36.3,-100.00,SW,236,10.0,20.0,51,0.00,,,0.00,meteohub,2013-01-27 11:23:00,
2013-01-27 03:28:00,54.0,36.7,-100.00,SW,228,5.0,18.0,52,0.00,,,0.00,meteohub,2013-01-27 11:28:00,
2013-01-27 03:33:00,53.8,36.5,-100.00,WSW,242,9.0,20.0,52,0.00,,,0.00,meteohub,2013-01-27 11:33:00,
2013-01-27 03:38:00,53.6,36.9,-100.00,West,268,10.0,20.0,53,0.00,,,0.00,meteohub,2013-01-27 11:38:00,
2013-01-27 03:43:00,53.4,37.2,-100.00,WSW,238,12.0,20.0,54,0.00,,,0.00,meteohub,2013-01-27 11:43:00,
2013-01-27 03:48:00,53.2,37.0,-100.00,SW,225,10.0,19.0,54,0.00,,,0.00,meteohub,2013-01-27 11:48:00,
2013-01-27 03:53:00,53.1,36.9,-100.00,SW,226,14.0,17.0,54,0.00,,,0.00,meteohub,2013-01-27 11:53:00,
2013-01-27 03:58:00,53.1,37.8,-100.00,SW,216,13.0,17.0,56,0.00,,,0.00,meteohub,2013-01-27 11:58:00,
2013-01-27 04:03:00,52.9,37.6,-100.00,SSW,202,7.0,17.0,56,0.00,,,0.00,meteohub,2013-01-27 12:03:00,
2013-01-27 04:08:00,52.9,37.6,-100.00,SW,232,7.0,17.0,56,0.00,,,0.00,meteohub,2013-01-27 12:08:00,
2013-01-27 04:13:00,52.9,37.6,-100.00,WSW,257,15.0,17.0,56,0.00,,,0.00,meteohub,2013-01-27 12:13:00,
2013-01-27 04:18:00,52.3,37.6,-100.00,West,259,8.0,17.0,57,0.00,,,0.00,meteohub,2013-01-27 12:18:00,
2013-01-27 04:23:00,52.2,37.4,-100.00,WSW,246,9.0,17.0,57,0.00,,,0.00,meteohub,2013-01-27 12:23:00,
2013-01-27 04:28:00,52.2,37.8,-100.00,SW,227,12.0,17.0,58,0.00,,,0.00,meteohub,2013-01-27 12:28:00,
2013-01-27 04:33:00,52.2,37.8,-100.00,SW,228,14.0,15.0,58,0.00,,,0.00,meteohub,2013-01-27 12:33:00,
2013-01-27 04:38:00,52.3,37.9,-100.00,SW,215,12.0,15.0,58,0.00,,,0.00,meteohub,2013-01-27 12:38:00,
2013-01-27 04:43:00,52.5,39.0,-100.00,SW,232,8.0,16.0,60,0.00,,,0.00,meteohub,2013-01-27 12:43:00,
2013-01-27 04:48:00,52.9,39.7,-100.00,South,188,13.0,18.0,61,0.00,,,0.00,meteohub,2013-01-27 12:48:00,
2013-01-27 04:53:00,52.9,39.4,-100.00,SW,214,14.0,20.0,60,0.00,,,0.00,meteohub,2013-01-27 12:53:00,
2013-01-27 04:58:00,52.7,39.2,-100.00,SSW,211,7.0,22.0,60,0.00,,,0.00,meteohub,2013-01-27 12:58:00,
2013-01-27 05:03:00,52.7,39.2,-100.00,SW,219,15.0,22.0,60,0.00,,,0.00,meteohub,2013-01-27 13:03:00,
2013-01-27 05:08:00,52.9,39.4,-100.00,SW,234,14.0,22.0,60,0.00,,,0.00,meteohub,2013-01-27 13:08:00,
2013-01-27 05:13:00,52.9,39.4,-100.00,SW,224,14.0,22.0,60,0.00,,,0.00,meteohub,2013-01-27 13:13:00,
2013-01-27 05:18:00,52.5,39.0,-100.00,SW,219,17.0,22.0,60,0.00,,,0.00,meteohub,2013-01-27 13:18:00,
2013-01-27 05:23:00,52.3,38.8,-100.00,SW,217,15.0,23.0,60,0.00,,,0.00,meteohub,2013-01-27 13:23:00,
2013-01-27 05:28:00,52.3,38.5,-100.00,SW,227,15.0,24.0,59,0.00,,,0.00,meteohub,2013-01-27 13:28:00,
2013-01-27 05:33:00,52.5,39.0,-100.00,SW,223,16.0,24.0,60,0.00,,,0.00,meteohub,2013-01-27 13:33:00,
2013-01-27 05:38:00,52.7,39.6,-100.00,SW,228,16.0,22.0,61,0.00,,,0.00,meteohub,2013-01-27 13:38:00,
2013-01-27 05:43:00,52.3,38.5,-100.00,SSW,202,14.0,21.0,59,0.00,,,0.00,meteohub,2013-01-27 13:43:00,
2013-01-27 05:48:00,52.2,38.7,-100.00,SW,232,15.0,21.0,60,0.00,,,0.00,meteohub,2013-01-27 13:48:00,
2013-01-27 05:53:00,52.0,39.0,-100.00,SSW,207,12.0,23.0,61,0.00,,,0.00,meteohub,2013-01-27 13:53:00,
2013-01-27 05:58:00,51.6,39.0,-100.00,SW,219,22.0,24.0,62,0.00,,,0.00,meteohub,2013-01-27 13:58:00,
2013-01-27 06:03:00,51.4,38.8,-100.00,SW,218,17.0,29.0,62,0.00,,,0.00,meteohub,2013-01-27 14:03:00,
2013-01-27 06:08:00,51.1,38.8,-100.00,SSW,207,6.0,29.0,63,0.00,,,0.00,meteohub,2013-01-27 14:08:00,
2013-01-27 06:13:00,50.5,38.5,-100.00,SSW,211,17.0,29.0,63,0.00,,,0.00,meteohub,2013-01-27 14:13:00,
2013-01-27 06:18:00,50.4,38.7,-100.00,SW,223,11.0,25.0,64,0.00,,,0.00,meteohub,2013-01-27 14:18:00,
2013-01-27 06:23:00,50.4,38.7,-100.00,SW,215,12.0,25.0,64,0.00,,,0.00,meteohub,2013-01-27 14:23:00,
2013-01-27 06:28:00,49.8,38.1,-100.00,SW,236,14.0,24.0,64,0.00,,,0.00,meteohub,2013-01-27 14:28:00,
2013-01-27 06:33:00,49.5,37.8,-100.00,SSW,209,9.0,24.0,64,0.00,,,0.00,meteohub,2013-01-27 14:33:00,
2013-01-27 06:38:00,49.3,37.6,-100.00,SW,235,9.0,24.0,64,0.00,,,0.00,meteohub,2013-01-27 14:38:00,
2013-01-27 06:43:00,49.1,37.8,-100.00,SW,215,15.0,25.0,65,0.00,,,0.00,meteohub,2013-01-27 14:43:00,
2013-01-27 06:48:00,48.9,37.8,-100.00,SW,218,8.0,25.0,65,0.00,,,0.00,meteohub,2013-01-27 14:48:00,
2013-01-27 06:53:00,48.4,37.2,-100.00,SW,221,9.0,25.0,65,0.00,,,0.00,meteohub,2013-01-27 14:53:00,
2013-01-27 06:58:00,47.8,36.7,-100.00,WSW,242,16.0,25.0,65,0.00,,,0.00,meteohub,2013-01-27 14:58:00,
2013-01-27 07:03:00,47.8,37.0,-100.00,SW,227,25.0,25.0,66,0.00,,,0.00,meteohub,2013-01-27 15:03:00,
2013-01-27 07:08:00,47.7,36.9,-100.00,SW,229,19.0,26.0,66,0.00,,,0.00,meteohub,2013-01-27 15:08:00,
2013-01-27 07:13:00,47.5,36.7,-100.00,SW,228,16.0,29.0,66,0.00,,,0.00,meteohub,2013-01-27 15:13:00,
2013-01-27 07:18:00,47.5,36.3,-100.00,SW,222,18.0,29.0,65,0.00,,,0.00,meteohub,2013-01-27 15:18:00,
2013-01-27 07:23:00,47.7,36.1,-100.00,WSW,239,12.0,29.0,64,0.00,,,0.00,meteohub,2013-01-27 15:23:00,
2013-01-27 07:28:00,47.7,35.6,-100.00,WSW,245,13.0,29.0,63,0.00,,,0.00,meteohub,2013-01-27 15:28:00,
2013-01-27 07:33:00,48.2,35.4,-100.00,WSW,245,22.0,29.0,61,0.00,,,0.00,meteohub,2013-01-27 15:33:00,
2013-01-27 07:38:00,48.7,35.1,-100.00,WSW,238,19.0,32.0,59,0.00,,,0.00,meteohub,2013-01-27 15:38:00,
2013-01-27 07:43:00,49.3,34.7,-100.00,WSW,245,19.0,32.0,57,0.00,,,0.00,meteohub,2013-01-27 15:43:00,
2013-01-27 07:48:00,49.6,34.5,-100.00,WSW,252,24.0,32.0,56,0.00,,,0.00,meteohub,2013-01-27 15:48:00,
2013-01-27 07:53:00,49.8,33.8,-100.00,WSW,245,17.0,33.0,54,0.00,,,0.00,meteohub,2013-01-27 15:53:00,
2013-01-27 07:58:00,50.2,33.6,-100.00,WSW,251,23.0,34.0,53,0.00,,,0.00,meteohub,2013-01-27 15:58:00,
2013-01-27 08:03:00,50.4,33.4,-100.00,West,267,24.0,34.0,52,0.00,,,0.00,meteohub,2013-01-27 16:03:00,
2013-01-27 08:08:00,50.4,33.4,-100.00,West,265,25.0,34.0,52,0.00,,,0.00,meteohub,2013-01-27 16:08:00,
2013-01-27 08:13:00,50.4,32.9,-100.00,West,267,26.0,37.0,51,0.00,,,0.00,meteohub,2013-01-27 16:13:00,
2013-01-27 08:18:00,50.5,33.1,-100.00,WSW,240,21.0,37.0,51,0.00,,,0.00,meteohub,2013-01-27 16:18:00,
2013-01-27 08:23:00,50.5,33.1,-100.00,WSW,250,15.0,35.0,51,0.00,,,0.00,meteohub,2013-01-27 16:23:00,
2013-01-27 08:28:00,50.7,33.8,-100.00,WSW,250,27.0,35.0,52,0.00,,,0.00,meteohub,2013-01-27 16:28:00,
2013-01-27 08:33:00,50.9,33.4,-100.00,WSW,244,13.0,34.0,51,0.00,,,0.00,meteohub,2013-01-27 16:33:00,
2013-01-27 08:38:00,51.1,33.6,-100.00,WSW,249,14.0,34.0,51,0.00,,,0.00,meteohub,2013-01-27 16:38:00,
2013-01-27 08:43:00,51.3,32.7,-100.00,WSW,250,18.0,33.0,49,0.00,,,0.00,meteohub,2013-01-27 16:43:00,
2013-01-27 08:48:00,51.3,32.7,-100.00,WSW,245,27.0,33.0,49,0.00,,,0.00,meteohub,2013-01-27 16:48:00,
2013-01-27 08:53:00,51.4,32.9,-100.00,WSW,257,21.0,32.0,49,0.00,,,0.00,meteohub,2013-01-27 16:53:00,
2013-01-27 08:58:00,51.6,32.0,-100.00,WSW,244,22.0,35.0,47,0.00,,,0.00,meteohub,2013-01-27 16:58:00,
2013-01-27 09:03:00,51.6,31.5,-100.00,WSW,248,30.0,35.0,46,0.00,,,0.00,meteohub,2013-01-27 17:03:00,
2013-01-27 09:08:00,51.6,32.0,-100.00,WSW,246,24.0,35.0,47,0.00,,,0.00,meteohub,2013-01-27 17:08:00,
2013-01-27 09:13:00,51.8,30.0,-100.00,West,259,35.0,35.0,43,0.00,,,0.00,meteohub,2013-01-27 17:13:00,
2013-01-27 09:18:00,52.0,29.7,-100.00,WSW,257,33.0,39.0,42,0.00,,,0.00,meteohub,2013-01-27 17:18:00,
2013-01-27 09:23:00,52.0,28.4,-100.00,West,268,30.0,39.0,40,0.00,,,0.00,meteohub,2013-01-27 17:23:00,
2013-01-27 09:28:00,52.2,28.6,-100.00,West,259,24.0,39.0,40,0.00,,,0.00,meteohub,2013-01-27 17:28:00,
2013-01-27 09:33:00,52.2,28.6,-100.00,West,262,16.0,38.0,40,0.00,,,0.00,meteohub,2013-01-27 17:33:00,
2013-01-27 09:38:00,52.3,27.5,-100.00,West,262,24.0,38.0,38,0.00,,,0.00,meteohub,2013-01-27 17:38:00,
2013-01-27 09:43:00,52.5,27.0,-100.00,West,261,25.0,39.0,37,0.00,,,0.00,meteohub,2013-01-27 17:43:00,
2013-01-27 09:48:00,52.9,26.6,-100.00,WSW,251,28.0,39.0,36,0.00,,,0.00,meteohub,2013-01-27 17:48:00,
2013-01-27 09:53:00,52.9,26.6,-100.00,WSW,242,31.0,41.0,36,0.00,,,0.00,meteohub,2013-01-27 17:53:00,
2013-01-27 09:58:00,52.9,26.6,-100.00,WSW,246,36.0,41.0,36,0.00,,,0.00,meteohub,2013-01-27 17:58:00,
2013-01-27 10:03:00,52.9,26.6,-100.00,SW,236,32.0,41.0,36,0.00,,,0.00,meteohub,2013-01-27 18:03:00,
2013-01-27 10:08:00,52.9,26.6,-100.00,WSW,255,20.0,41.0,36,0.00,,,0.00,meteohub,2013-01-27 18:08:00,
2013-01-27 10:13:00,53.1,26.8,-100.00,West,262,19.0,42.0,36,0.00,,,0.00,meteohub,2013-01-27 18:13:00,
2013-01-27 10:18:00,53.4,26.4,-100.00,SW,228,18.0,42.0,35,0.00,,,0.00,meteohub,2013-01-27 18:18:00,
2013-01-27 10:23:00,53.6,25.2,-100.00,West,261,29.0,41.0,33,0.00,,,0.00,meteohub,2013-01-27 18:23:00,
2013-01-27 10:28:00,53.6,25.9,-100.00,SW,234,17.0,39.0,34,0.00,,,0.00,meteohub,2013-01-27 18:28:00,
2013-01-27 10:33:00,53.8,26.1,-100.00,WSW,250,24.0,38.0,34,0.00,,,0.00,meteohub,2013-01-27 18:33:00,
2013-01-27 10:38:00,54.0,25.5,-100.00,SW,226,19.0,38.0,33,0.00,,,0.00,meteohub,2013-01-27 18:38:00,
2013-01-27 10:43:00,54.0,24.8,-100.00,WSW,240,20.0,38.0,32,0.00,,,0.00,meteohub,2013-01-27 18:43:00,
2013-01-27 10:48:00,54.0,24.8,-100.00,WSW,254,28.0,38.0,32,0.00,,,0.00,meteohub,2013-01-27 18:48:00,
2013-01-27 10:53:00,54.0,24.1,-100.00,SW,225,19.0,38.0,31,0.00,,,0.00,meteohub,2013-01-27 18:53:00,
2013-01-27 10:58:00,54.1,25.0,-100.00,WSW,253,24.0,38.0,32,0.00,,,0.00,meteohub,2013-01-27 18:58:00,
2013-01-27 11:03:00,54.1,24.1,-100.00,West,263,17.0,38.0,31,0.00,,,0.00,meteohub,2013-01-27 19:03:00,
2013-01-27 11:08:00,54.3,25.2,-100.00,WSW,242,22.0,37.0,32,0.00,,,0.00,meteohub,2013-01-27 19:08:00,
2013-01-27 11:13:00,54.7,24.6,-100.00,WSW,242,9.0,37.0,31,0.00,,,0.00,meteohub,2013-01-27 19:13:00,
2013-01-27 11:18:00,54.7,23.9,-100.00,WSW,254,29.0,35.0,30,0.00,,,0.00,meteohub,2013-01-27 19:18:00,
2013-01-27 11:23:00,54.5,23.7,-100.00,WSW,246,20.0,43.0,30,0.00,,,0.00,meteohub,2013-01-27 19:23:00,
2013-01-27 11:28:00,54.3,24.3,-100.00,West,269,29.0,45.0,31,0.00,,,0.00,meteohub,2013-01-27 19:28:00,
2013-01-27 11:33:00,54.1,23.4,-100.00,SW,219,26.0,45.0,30,0.00,,,0.00,meteohub,2013-01-27 19:33:00,
2013-01-27 11:38:00,54.3,23.5,-100.00,West,263,31.0,45.0,30,0.00,,,0.00,meteohub,2013-01-27 19:38:00,
2013-01-27 11:43:00,54.1,22.6,-100.00,West,261,34.0,43.0,29,0.00,,,0.00,meteohub,2013-01-27 19:43:00,
2013-01-27 11:48:00,54.1,21.7,-100.00,SW,229,35.0,43.0,28,0.00,,,0.00,meteohub,2013-01-27 19:48:00,
2013-01-27 11:54:00,54.3,21.9,-100.00,WSW,252,20.0,43.0,28,0.00,,,0.00,meteohub,2013-01-27 19:54:00,
2013-01-27 11:59:00,54.5,22.8,-100.00,SW,223,13.0,43.0,29,0.00,,,0.00,meteohub,2013-01-27 19:59:00,
2013-01-27 12:04:00,54.9,22.3,-100.00,West,262,17.0,40.0,28,0.00,,,0.00,meteohub,2013-01-27 20:04:00,
2013-01-27 12:09:00,54.9,23.2,-100.00,SSW,196,11.0,41.0,29,0.00,,,0.00,meteohub,2013-01-27 20:09:00,
2013-01-27 12:14:00,54.9,23.2,-100.00,SW,234,18.0,41.0,29,0.00,,,0.00,meteohub,2013-01-27 20:14:00,
2013-01-27 12:19:00,54.9,23.2,-100.00,WSW,238,36.0,41.0,29,0.00,,,0.00,meteohub,2013-01-27 20:19:00,
2013-01-27 12:24:00,54.9,24.1,-100.00,WSW,242,17.0,40.0,30,0.00,,,0.00,meteohub,2013-01-27 20:24:00,
2013-01-27 12:29:00,54.9,24.8,-100.00,SW,234,12.0,40.0,31,0.00,,,0.00,meteohub,2013-01-27 20:29:00,
2013-01-27 12:34:00,54.9,24.1,-100.00,SW,236,25.0,40.0,30,0.00,,,0.00,meteohub,2013-01-27 20:34:00,
2013-01-27 12:39:00,54.9,24.1,-100.00,SW,235,28.0,40.0,30,0.00,,,0.00,meteohub,2013-01-27 20:39:00,
2013-01-27 12:44:00,54.7,25.3,-100.00,WSW,257,25.0,37.0,32,0.00,,,0.00,meteohub,2013-01-27 20:44:00,
2013-01-27 12:49:00,54.9,24.8,-100.00,WSW,254,23.0,37.0,31,0.00,,,0.00,meteohub,2013-01-27 20:49:00,
2013-01-27 12:54:00,54.7,25.3,-100.00,WNW,287,20.0,37.0,32,0.00,,,0.00,meteohub,2013-01-27 20:54:00,
2013-01-27 12:59:00,54.7,24.6,-100.00,WSW,238,29.0,38.0,31,0.00,,,0.00,meteohub,2013-01-27 20:59:00,
2013-01-27 13:04:00,54.7,24.6,-100.00,West,261,28.0,38.0,31,0.00,,,0.00,meteohub,2013-01-27 21:04:00,
2013-01-27 13:09:00,54.1,25.0,-100.00,WSW,252,25.0,38.0,32,0.00,,,0.00,meteohub,2013-01-27 21:09:00,
2013-01-27 13:14:00,54.1,25.0,-100.00,WSW,257,29.0,37.0,32,0.00,,,0.00,meteohub,2013-01-27 21:14:00,
2013-01-27 13:19:00,54.3,24.3,-100.00,West,259,21.0,37.0,31,0.00,,,0.00,meteohub,2013-01-27 21:19:00,
2013-01-27 13:24:00,54.1,25.0,-100.00,West,262,20.0,35.0,32,0.00,,,0.00,meteohub,2013-01-27 21:24:00,
2013-01-27 13:29:00,54.0,24.8,-100.00,WSW,258,23.0,41.0,32,0.00,,,0.00,meteohub,2013-01-27 21:29:00,
2013-01-27 13:34:00,54.0,24.8,-100.00,WSW,242,25.0,41.0,32,0.00,,,0.00,meteohub,2013-01-27 21:34:00,
2013-01-27 13:39:00,53.8,25.3,-100.00,WSW,244,19.0,41.0,33,0.00,,,0.00,meteohub,2013-01-27 21:39:00,
2013-01-27 13:44:00,54.1,25.0,-100.00,WSW,245,12.0,38.0,32,0.00,,,0.00,meteohub,2013-01-27 21:44:00,
2013-01-27 13:49:00,54.3,25.2,-100.00,WSW,254,21.0,38.0,32,0.00,,,0.00,meteohub,2013-01-27 21:49:00,
2013-01-27 13:54:00,54.1,25.0,-100.00,WSW,247,31.0,36.0,32,0.00,,,0.00,meteohub,2013-01-27 21:54:00,
2013-01-27 13:59:00,53.8,24.6,-100.00,WSW,242,17.0,39.0,32,0.00,,,0.00,meteohub,2013-01-27 21:59:00,
2013-01-27 14:04:00,53.8,23.9,-100.00,West,262,21.0,42.0,31,0.00,,,0.00,meteohub,2013-01-27 22:04:00,
2013-01-27 14:09:00,53.4,23.5,-100.00,West,265,25.0,42.0,31,0.00,,,0.00,meteohub,2013-01-27 22:09:00,
2013-01-27 14:14:00,53.2,24.8,-100.00,West,273,24.0,42.0,33,0.00,,,0.00,meteohub,2013-01-27 22:14:00,
2013-01-27 14:19:00,53.1,24.8,-100.00,WSW,242,27.0,42.0,33,0.00,,,0.00,meteohub,2013-01-27 22:19:00,
2013-01-27 14:24:00,53.1,24.8,-100.00,WSW,252,21.0,42.0,33,0.00,,,0.00,meteohub,2013-01-27 22:24:00,
2013-01-27 14:29:00,53.2,24.8,-100.00,WSW,243,29.0,42.0,33,0.00,,,0.00,meteohub,2013-01-27 22:29:00,
2013-01-27 14:34:00,53.1,24.8,-100.00,SW,227,22.0,35.0,33,0.00,,,0.00,meteohub,2013-01-27 22:34:00,
2013-01-27 14:39:00,53.1,24.8,-100.00,WSW,248,14.0,34.0,33,0.00,,,0.00,meteohub,2013-01-27 22:39:00,
2013-01-27 14:44:00,53.1,24.8,-100.00,WSW,241,21.0,34.0,33,0.00,,,0.00,meteohub,2013-01-27 22:44:00,
2013-01-27 14:49:00,52.9,23.9,-100.00,SW,226,18.0,34.0,32,0.00,,,0.00,meteohub,2013-01-27 22:49:00,
2013-01-27 14:54:00,52.9,24.6,-100.00,WSW,245,24.0,38.0,33,0.00,,,0.00,meteohub,2013-01-27 22:54:00,
2013-01-27 14:59:00,52.9,24.6,-100.00,West,271,19.0,38.0,33,0.00,,,0.00,meteohub,2013-01-27 22:59:00,
2013-01-27 15:04:00,52.7,25.2,-100.00,WSW,247,34.0,38.0,34,0.00,,,0.00,meteohub,2013-01-27 23:04:00,
2013-01-27 15:09:00,52.3,24.8,-100.00,WSW,252,21.0,35.0,34,0.00,,,0.00,meteohub,2013-01-27 23:09:00,
2013-01-27 15:14:00,52.3,24.1,-100.00,WSW,242,33.0,39.0,33,0.00,,,0.00,meteohub,2013-01-27 23:14:00,
2013-01-27 15:19:00,52.2,24.6,-100.00,WSW,254,26.0,39.0,34,0.00,,,0.00,meteohub,2013-01-27 23:19:00,
2013-01-27 15:24:00,52.0,24.4,-100.00,WSW,252,34.0,40.0,34,0.00,,,0.00,meteohub,2013-01-27 23:24:00,
2013-01-27 15:29:00,51.8,24.3,-100.00,WSW,246,33.0,40.0,34,0.00,,,0.00,meteohub,2013-01-27 23:29:00,
2013-01-27 15:34:00,51.6,24.8,-100.00,SW,217,27.0,43.0,35,0.00,,,0.00,meteohub,2013-01-27 23:34:00,
2013-01-27 15:39:00,51.6,24.8,-100.00,SW,231,32.0,43.0,35,0.00,,,0.00,meteohub,2013-01-27 23:39:00,
2013-01-27 15:44:00,51.3,24.6,-100.00,SW,234,23.0,43.0,35,0.00,,,0.00,meteohub,2013-01-27 23:44:00,
2013-01-27 15:49:00,51.3,25.2,-100.00,SW,233,24.0,37.0,36,0.00,,,0.00,meteohub,2013-01-27 23:49:00,
2013-01-27 15:54:00,51.1,24.4,-100.00,WSW,242,26.0,37.0,35,0.00,,,0.00,meteohub,2013-01-27 23:54:00,
2013-01-27 15:59:00,50.9,24.8,-100.00,SW,229,17.0,39.0,36,0.00,,,0.00,meteohub,2013-01-27 23:59:00,
2013-01-27 16:04:00,50.5,24.6,-100.00,WSW,240,15.0,39.0,36,0.00,,,0.00,meteohub,2013-01-28 00:04:00,
2013-01-27 16:09:00,50.4,25.0,-100.00,SW,231,27.0,39.0,37,0.00,,,0.00,meteohub,2013-01-28 00:09:00,
2013-01-27 16:14:00,50.2,25.0,-100.00,SW,221,9.0,38.0,37,0.00,,,0.00,meteohub,2013-01-28 00:14:00,
2013-01-27 16:19:00,50.2,25.0,-100.00,WSW,241,30.0,41.0,37,0.00,,,0.00,meteohub,2013-01-28 00:19:00,
2013-01-27 16:24:00,50.0,25.3,-100.00,WSW,248,23.0,41.0,38,0.00,,,0.00,meteohub,2013-01-28 00:24:00,
2013-01-27 16:29:00,49.6,25.0,-100.00,SW,225,7.0,36.0,38,0.00,,,0.00,meteohub,2013-01-28 00:29:00,
2013-01-27 16:34:00,49.6,25.0,-100.00,SW,228,17.0,36.0,38,0.00,,,0.00,meteohub,2013-01-28 00:34:00,
2013-01-27 16:39:00,49.3,24.8,-100.00,SW,224,8.0,33.0,38,0.00,,,0.00,meteohub,2013-01-28 00:39:00,
2013-01-27 16:44:00,49.3,24.8,-100.00,WSW,244,22.0,34.0,38,0.00,,,0.00,meteohub,2013-01-28 00:44:00,
2013-01-27 16:49:00,48.7,24.8,-100.00,SW,223,24.0,34.0,39,0.00,,,0.00,meteohub,2013-01-28 00:49:00,
2013-01-27 16:54:00,48.6,24.1,-100.00,SW,232,21.0,34.0,38,0.00,,,0.00,meteohub,2013-01-28 00:54:00,
2013-01-27 16:59:00,48.6,24.8,-100.00,SW,229,29.0,33.0,39,0.00,,,0.00,meteohub,2013-01-28 00:59:00,
2013-01-27 17:04:00,48.4,24.6,-100.00,WSW,242,13.0,33.0,39,0.00,,,0.00,meteohub,2013-01-28 01:04:00,
2013-01-27 17:09:00,48.4,25.2,-100.00,SW,233,10.0,29.0,40,0.00,,,0.00,meteohub,2013-01-28 01:09:00,
2013-01-27 17:14:00,48.2,24.4,-100.00,SW,234,14.0,29.0,39,0.00,,,0.00,meteohub,2013-01-28 01:14:00,
2013-01-27 17:19:00,48.2,23.7,-100.00,SW,223,9.0,27.0,38,0.00,,,0.00,meteohub,2013-01-28 01:19:00,
2013-01-27 17:24:00,48.4,23.9,-100.00,SW,217,9.0,22.0,38,0.00,,,0.00,meteohub,2013-01-28 01:24:00,
2013-01-27 17:29:00,48.4,23.9,-100.00,SW,232,14.0,21.0,38,0.00,,,0.00,meteohub,2013-01-28 01:29:00,
2013-01-27 17:34:00,48.4,24.6,-100.00,WSW,240,7.0,21.0,39,0.00,,,0.00,meteohub,2013-01-28 01:34:00,
2013-01-27 17:39:00,48.4,23.9,-100.00,SW,236,11.0,19.0,38,0.00,,,0.00,meteohub,2013-01-28 01:39:00,
2013-01-27 17:44:00,48.0,23.5,-100.00,SW,235,15.0,19.0,38,0.00,,,0.00,meteohub,2013-01-28 01:44:00,
2013-01-27 17:49:00,48.0,24.8,-100.00,WSW,238,11.0,19.0,40,0.00,,,0.00,meteohub,2013-01-28 01:49:00,
2013-01-27 17:54:00,48.0,24.8,-100.00,SW,226,11.0,19.0,40,0.00,,,0.00,meteohub,2013-01-28 01:54:00,
2013-01-27 17:59:00,48.0,24.3,-100.00,SW,227,11.0,19.0,39,0.00,,,0.00,meteohub,2013-01-28 01:59:00,
2013-01-27 18:04:00,47.8,24.1,-100.00,SW,228,13.0,22.0,39,0.00,,,0.00,meteohub,2013-01-28 02:04:00,
2013-01-27 18:09:00,47.8,24.1,-100.00,SW,235,16.0,22.0,39,0.00,,,0.00,meteohub,2013-01-28 02:09:00,
2013-01-27 18:14:00,47.7,24.4,-100.00,WSW,239,12.0,22.0,40,0.00,,,0.00,meteohub,2013-01-28 02:14:00,
2013-01-27 18:19:00,47.7,23.9,-100.00,West,263,10.0,19.0,39,0.00,,,0.00,meteohub,2013-01-28 02:19:00,
2013-01-27 18:24:00,47.7,23.9,-100.00,WSW,242,7.0,19.0,39,0.00,,,0.00,meteohub,2013-01-28 02:24:00,
2013-01-27 18:29:00,47.7,23.9,-100.00,WSW,257,8.0,19.0,39,0.00,,,0.00,meteohub,2013-01-28 02:29:00,
2013-01-27 18:34:00,47.7,24.4,-100.00,WSW,252,14.0,17.0,40,0.00,,,0.00,meteohub,2013-01-28 02:34:00,
2013-01-27 18:39:00,47.5,25.0,-100.00,SW,232,12.0,19.0,41,0.00,,,0.00,meteohub,2013-01-28 02:39:00,
2013-01-27 18:44:00,47.5,23.7,-100.00,WSW,244,10.0,19.0,39,0.00,,,0.00,meteohub,2013-01-28 02:44:00,
2013-01-27 18:49:00,47.7,23.4,-100.00,WSW,243,8.0,19.0,38,0.00,,,0.00,meteohub,2013-01-28 02:49:00,
2013-01-27 18:54:00,47.8,22.1,-100.00,West,280,5.0,16.0,36,0.00,,,0.00,meteohub,2013-01-28 02:54:00,
2013-01-27 18:59:00,48.4,22.6,-100.00,SSW,196,5.0,13.0,36,0.00,,,0.00,meteohub,2013-01-28 02:59:00,
2013-01-27 19:04:00,48.7,24.3,-100.00,SSW,193,3.0,10.0,38,0.00,,,0.00,meteohub,2013-01-28 03:04:00,
2013-01-27 19:09:00,48.9,24.4,-100.00,SSE,167,4.0,9.0,38,0.00,,,0.00,meteohub,2013-01-28 03:09:00,
2013-01-27 19:14:00,48.7,24.3,-100.00,ENE,61,9.0,9.0,38,0.00,,,0.00,meteohub,2013-01-28 03:14:00,
2013-01-27 19:19:00,48.4,23.9,-100.00,East,80,9.0,11.0,38,0.00,,,0.00,meteohub,2013-01-28 03:19:00,
2013-01-27 19:24:00,47.8,25.3,-100.00,ENE,70,8.0,11.0,41,0.00,,,0.00,meteohub,2013-01-28 03:24:00,
2013-01-27 19:29:00,47.8,25.3,-100.00,ENE,63,9.0,11.0,41,0.00,,,0.00,meteohub,2013-01-28 03:29:00,
2013-01-27 19:34:00,47.7,24.4,-100.00,ENE,73,11.0,12.0,40,0.00,,,0.00,meteohub,2013-01-28 03:34:00,
2013-01-27 19:39:00,47.5,24.4,-100.00,East,82,9.0,12.0,40,0.00,,,0.00,meteohub,2013-01-28 03:39:00,
2013-01-27 19:44:00,47.3,24.8,-100.00,ENE,71,5.0,13.0,41,0.00,,,0.00,meteohub,2013-01-28 03:44:00,
2013-01-27 19:49:00,46.9,26.2,-100.00,East,88,10.0,13.0,44,0.00,,,0.00,meteohub,2013-01-28 03:49:00,
2013-01-27 19:54:00,46.9,26.8,-100.00,East,94,8.0,13.0,45,0.00,,,0.00,meteohub,2013-01-28 03:54:00,
2013-01-27 19:59:00,46.8,25.5,-100.00,East,101,6.0,13.0,43,0.00,,,0.00,meteohub,2013-01-28 03:59:00,
2013-01-27 20:04:00,46.8,24.8,-100.00,East,96,7.0,13.0,42,0.00,,,0.00,meteohub,2013-01-28 04:04:00,
2013-01-27 20:09:00,46.9,25.0,-100.00,East,86,3.0,10.0,42,0.00,,,0.00,meteohub,2013-01-28 04:09:00,
2013-01-27 20:14:00,46.9,25.0,-100.00,East,86,3.0,9.0,42,0.00,,,0.00,meteohub,2013-01-28 04:14:00,
2013-01-27 20:19:00,46.6,24.8,-100.00,NNW,338,7.0,8.0,42,0.00,,,0.00,meteohub,2013-01-28 04:19:00,
2013-01-27 20:24:00,46.8,26.1,-100.00,NNW,330,15.0,15.0,44,0.00,,,0.00,meteohub,2013-01-28 04:24:00,
2013-01-27 20:29:00,47.1,29.8,-100.00,NW,313,10.0,20.0,51,0.00,,,0.00,meteohub,2013-01-28 04:29:00,
2013-01-27 20:34:00,46.9,32.5,-100.00,NW,306,9.0,20.0,57,0.00,,,0.00,meteohub,2013-01-28 04:34:00,
2013-01-27 20:39:00,46.8,32.7,-100.00,WNW,291,8.0,20.0,58,0.00,,,0.00,meteohub,2013-01-28 04:39:00,
2013-01-27 20:44:00,46.8,32.7,-100.00,WNW,288,6.0,17.0,58,0.00,,,0.00,meteohub,2013-01-28 04:44:00,
2013-01-27 20:49:00,46.8,32.7,-100.00,West,279,12.0,13.0,58,0.00,,,0.00,meteohub,2013-01-28 04:49:00,
2013-01-27 20:54:00,46.8,32.7,-100.00,West,262,7.0,10.0,58,0.00,,,0.00,meteohub,2013-01-28 04:54:00,
2013-01-27 20:59:00,46.8,32.7,-100.00,WSW,256,9.0,12.0,58,0.00,,,0.00,meteohub,2013-01-28 04:59:00,
2013-01-27 21:00:00,46.8,33.3,-100.00,West,259,8.0,12.0,59,0.00,,,0.00,meteohub,2013-01-28 05:00:00,
2013-01-27 21:01:00,46.9,33.4,-100.00,West,277,7.0,12.0,59,0.00,,,0.00,meteohub,2013-01-28 05:01:00,
2013-01-27 21:03:00,46.9,33.4,-100.00,West,259,7.0,12.0,59,0.00,,,0.00,meteohub,2013-01-28 05:03:00,
2013-01-27 21:04:00,46.9,33.4,-100.00,WSW,254,5.0,12.0,59,0.00,,,0.00,meteohub,2013-01-28 05:04:00,
2013-01-27 21:09:00,46.9,32.9,-100.00,WSW,245,5.0,10.0,58,0.00,,,0.00,meteohub,2013-01-28 05:09:00,
2013-01-27 21:14:00,46.9,33.4,-100.00,WSW,250,7.0,10.0,59,0.00,,,0.00,meteohub,2013-01-28 05:14:00,
2013-01-27 21:19:00,46.9,32.9,-100.00,WSW,254,4.0,8.0,58,0.00,,,0.00,meteohub,2013-01-28 05:19:00,
2013-01-27 21:24:00,46.9,33.4,-100.00,WSW,242,3.0,8.0,59,0.00,,,0.00,meteohub,2013-01-28 05:24:00,
2013-01-27 21:29:00,46.9,32.9,-100.00,WSW,240,3.0,8.0,58,0.00,,,0.00,meteohub,2013-01-28 05:29:00,
2013-01-27 21:34:00,46.8,32.7,-100.00,SW,225,4.0,7.0,58,0.00,,,0.00,meteohub,2013-01-28 05:34:00,
2013-01-27 21:39:00,46.9,32.5,-100.00,SSW,211,5.0,6.0,57,0.00,,,0.00,meteohub,2013-01-28 05:39:00,
2013-01-27 21:44:00,46.9,32.5,-100.00,SSW,207,3.0,7.0,57,0.00,,,0.00,meteohub,2013-01-28 05:44:00,
2013-01-27 21:49:00,47.1,32.7,-100.00,SSW,207,4.0,7.0,57,0.00,,,0.00,meteohub,2013-01-28 05:49:00,
2013-01-27 21:54:00,47.3,32.9,-100.00,SSW,206,5.0,7.0,57,0.00,,,0.00,meteohub,2013-01-28 05:54:00,
2013-01-27 21:59:00,47.5,32.5,-100.00,SSW,206,2.0,7.0,56,0.00,,,0.00,meteohub,2013-01-28 05:59:00,
2013-01-27 22:04:00,47.5,32.2,-100.00,SSW,206,2.0,6.0,55,0.00,,,0.00,meteohub,2013-01-28 06:04:00,
2013-01-27 22:09:00,47.7,32.4,-100.00,SSW,206,4.0,6.0,55,0.00,,,0.00,meteohub,2013-01-28 06:09:00,
2013-01-27 22:14:00,47.5,32.2,-100.00,SSW,206,3.0,4.0,55,0.00,,,0.00,meteohub,2013-01-28 06:14:00,
2013-01-27 22:19:00,47.5,32.2,-100.00,SSE,158,5.0,5.0,55,0.00,,,0.00,meteohub,2013-01-28 06:19:00,
2013-01-27 22:24:00,47.7,31.3,-100.00,SSE,158,4.0,7.0,53,0.00,,,0.00,meteohub,2013-01-28 06:24:00,
2013-01-27 22:29:00,47.8,30.6,-100.00,SSE,158,4.0,7.0,51,0.00,,,0.00,meteohub,2013-01-28 06:29:00,
2013-01-27 22:34:00,48.0,30.2,-100.00,SSE,158,4.0,7.0,50,0.00,,,0.00,meteohub,2013-01-28 06:34:00,
2013-01-27 22:39:00,48.4,30.0,-100.00,SSE,158,1.0,6.0,49,0.00,,,0.00,meteohub,2013-01-28 06:39:00,
2013-01-27 22:45:00,48.4,30.0,-100.00,SSE,158,5.0,6.0,49,0.00,,,0.00,meteohub,2013-01-28 06:45:00,
2013-01-27 22:50:00,48.4,30.0,-100.00,SE,127,6.0,6.0,49,0.00,,,0.00,meteohub,2013-01-28 06:50:00,
2013-01-27 22:55:00,48.0,30.2,-100.00,SE,126,4.0,6.0,50,0.00,,,0.00,meteohub,2013-01-28 06:55:00,
2013-01-27 23:00:00,47.8,29.7,-100.00,ESE,120,9.0,9.0,49,0.00,,,0.00,meteohub,2013-01-28 07:00:00,
2013-01-27 23:05:00,47.7,30.0,-100.00,SE,125,6.0,9.0,50,0.00,,,0.00,meteohub,2013-01-28 07:05:00,
2013-01-27 23:10:00,47.8,30.0,-100.00,SE,131,4.0,10.0,50,0.00,,,0.00,meteohub,2013-01-28 07:10:00,
2013-01-27 23:15:00,47.8,30.0,-100.00,SE,141,6.0,10.0,50,0.00,,,0.00,meteohub,2013-01-28 07:15:00,
2013-01-27 23:20:00,48.0,29.8,-100.00,SSE,159,4.0,10.0,49,0.00,,,0.00,meteohub,2013-01-28 07:20:00,
2013-01-27 23:25:00,48.0,31.3,-100.00,SW,217,8.0,9.0,52,0.00,,,0.00,meteohub,2013-01-28 07:25:00,
2013-01-27 23:30:00,48.0,30.7,-100.00,SSW,200,6.0,9.0,51,0.00,,,0.00,meteohub,2013-01-28 07:30:00,
2013-01-27 23:35:00,48.0,29.8,-100.00,South,185,3.0,10.0,49,0.00,,,0.00,meteohub,2013-01-28 07:35:00,
2013-01-27 23:40:00,48.0,29.3,-100.00,SSW,194,5.0,10.0,48,0.00,,,0.00,meteohub,2013-01-28 07:40:00,
2013-01-27 23:45:00,47.8,29.7,-100.00,SSW,193,7.0,10.0,49,0.00,,,0.00,meteohub,2013-01-28 07:45:00,
2013-01-27 23:50:00,47.8,28.0,-100.00,SSW,208,6.0,10.0,46,0.00,,,0.00,meteohub,2013-01-28 07:50:00,
2013-01-27 23:55:00,48.0,27.7,-100.00,South,181,3.0,10.0,45,0.00,,,0.00,meteohub,2013-01-28 07:55:00,